Grinnell, IA

8:21 AM CDT on July 26, 2017 (GMT -0500)
Grinnell Regional

Weather History for KGGI - October, 2013

Change the Weather History Date:

Thursday, October 17, 2013

  Actual Average (KTNU) Record (KTNU)
Temperature  
Mean Temperature 50 °F -  
Max Temperature 61 °F 64 °F 86 °F (2016)
Min Temperature 39 °F 40 °F 24 °F (1976)
Degree Days  
Heating Degree Days 15    
Moisture  
Dew Point 37 °F    
Average Humidity 69    
Maximum Humidity 93    
Minimum Humidity 32    
Precipitation  
Precipitation 0.04 in - - ()
Sea Level Pressure  
Sea Level Pressure 29.89 in    
Wind  
Wind Speed 7 mph (WSW)    
Max Wind Speed 15 mph    
Max Gust Speed 22 mph    
Visibility 10 miles    
Events      
Averages and records for this station are not official NWS values.
T = Trace of Precipitation, MM = Missing Value Source: NWS Daily Summary

Daily Weather History Graph

Daily Weather History Graph

Search for Another Location

Airport or City:

Trip Planner

Search our weather history database for the weather conditions in past years. The results will help you decide how hot, cold, wet, or windy it might be!

Date:

Astronomy

Oct. 17, 2013 Rise Set
Actual Time 7:25 AM CDT 6:26 PM CDT
Civil Twilight 6:57 AM CDT 6:54 PM CDT
Nautical Twilight 6:25 AM CDT 7:26 PM CDT
Astronomical Twilight 5:53 AM CDT 7:58 PM CDT
Moon 5:41 PM CDT (10/17) 5:57 AM CDT (10/17)
Length of Visible Light 11h 56m
Length of Day
11h 00m
Waxing Gibbous, 98% of the Moon is Illuminated
Oct 17
Waxing Gibbous
Oct 18
Full
Oct 26
Last Quarter
Nov 3
New
Nov 9
First Quarter

Hourly Weather History & Observations

Time (CDT) Temp. Windchill Dew Point Humidity Pressure Visibility Wind Dir Wind Speed Gust Speed Precip Events Conditions
12:15 AM 42.6 °F 40.9 °F 39.7 °F 90% 29.95 in 10.0 mi SW 3.5 mph - N/A   Scattered Clouds
12:35 AM 42.8 °F 40.1 °F 39.6 °F 88% 29.95 in 10.0 mi SW 4.6 mph - N/A   Clear
12:55 AM 41.4 °F 37.6 °F 39.0 °F 91% 29.95 in 10.0 mi SW 5.8 mph - N/A   Mostly Cloudy
1:15 AM 41.9 °F 40.0 °F 39.4 °F 91% 29.95 in 10.0 mi SW 3.5 mph - N/A   Overcast
1:35 AM 41.9 °F 39.0 °F 39.2 °F 90% 29.96 in 10.0 mi SSW 4.6 mph - N/A   Scattered Clouds
1:55 AM 41.7 °F 38.8 °F 39.0 °F 90% 29.95 in 10.0 mi SW 4.6 mph - N/A   Clear
2:15 AM 41.4 °F 38.4 °F 39.2 °F 92% 29.95 in 10.0 mi SW 4.6 mph - N/A   Clear
2:35 AM 40.5 °F 36.5 °F 38.3 °F 92% 29.95 in 10.0 mi SW 5.8 mph - N/A   Clear
2:55 AM 39.9 °F 35.8 °F 37.6 °F 91% 29.94 in 10.0 mi SW 5.8 mph - N/A   Clear
3:15 AM 39.4 °F 35.2 °F 37.6 °F 93% 29.93 in 10.0 mi SW 5.8 mph - N/A   Clear
3:35 AM 39.2 °F 34.2 °F 36.9 °F 91% 29.92 in 10.0 mi SW 6.9 mph - N/A   Clear
3:55 AM 39.2 °F 34.2 °F 37.0 °F 92% 29.92 in 10.0 mi SW 6.9 mph - N/A   Clear
4:15 AM 39.2 °F 34.2 °F 37.0 °F 92% 29.92 in 10.0 mi SSW 6.9 mph - N/A   Scattered Clouds
4:35 AM 39.7 °F 34.9 °F 37.6 °F 92% 29.91 in 10.0 mi SSW 6.9 mph - N/A   Mostly Cloudy
4:55 AM 39.6 °F 34.7 °F 37.4 °F 92% 29.91 in 10.0 mi SW 6.9 mph - N/A   Clear
5:15 AM 39.7 °F 34.9 °F 37.8 °F 93% 29.91 in 10.0 mi SW 6.9 mph - N/A   Scattered Clouds
5:35 AM 39.6 °F 35.4 °F 37.6 °F 93% 29.91 in 10.0 mi WSW 5.8 mph - N/A   Scattered Clouds
5:55 AM 39.6 °F 36.3 °F 37.4 °F 92% 29.90 in 10.0 mi WSW 4.6 mph - N/A   Clear
6:15 AM 39.9 °F 35.8 °F 37.4 °F 91% 29.90 in 10.0 mi West 5.8 mph - N/A   Clear
6:35 AM 40.1 °F 36.1 °F 37.4 °F 90% 29.89 in 10.0 mi West 5.8 mph - N/A   Clear
6:55 AM 39.7 °F 35.6 °F 37.2 °F 91% 29.90 in 10.0 mi WSW 5.8 mph - N/A   Clear
7:15 AM 39.9 °F 36.7 °F 37.4 °F 91% 29.89 in 10.0 mi WSW 4.6 mph - N/A   Clear
7:35 AM 39.4 °F 36.1 °F 37.0 °F 91% 29.90 in 10.0 mi West 4.6 mph - N/A   Clear
7:55 AM 39.2 °F 35.9 °F 37.2 °F 93% 29.90 in 10.0 mi West 4.6 mph - N/A   Clear
8:15 AM 39.4 °F - 37.4 °F 93% 29.90 in 10.0 mi Calm Calm - N/A   Clear
8:35 AM 39.6 °F 37.4 °F 37.4 °F 92% 29.91 in 10.0 mi SW 3.5 mph - N/A   Clear
8:55 AM 40.1 °F 36.9 °F 37.8 °F 91% 29.91 in 10.0 mi SW 4.6 mph - N/A   Clear
9:15 AM 42.4 °F 38.1 °F 39.2 °F 88% 29.91 in 10.0 mi SW 6.9 mph - N/A   Clear
9:35 AM 43.3 °F 38.6 °F 39.4 °F 86% 29.91 in 10.0 mi SW 8.1 mph - N/A   Clear
9:55 AM - - - N/A% - - North - - N/A   Unknown
10:15 AM 46.9 °F - 41.7 °F 82% 29.91 in 10.0 mi SW 5.8 mph - 0.04 in   Clear
10:35 AM 48.6 °F - 41.0 °F 75% 29.91 in 10.0 mi SW 9.2 mph - 0.04 in   Clear
10:55 AM 49.5 °F - 40.8 °F 72% 29.90 in 10.0 mi WSW 9.2 mph - 0.04 in   Clear
11:15 AM 51.8 °F - 38.7 °F 61% 29.90 in 10.0 mi WSW 6.9 mph - N/A   Clear
11:35 AM 53.4 °F - 37.9 °F 56% 29.89 in 10.0 mi SW 6.9 mph - N/A   Clear
11:55 AM 54.9 °F - 37.9 °F 53% 29.89 in 10.0 mi SSW 3.5 mph - N/A   Clear
12:15 PM 55.8 °F - 36.3 °F 48% 29.88 in 10.0 mi SW 6.9 mph - N/A   Clear
12:35 PM 56.8 °F - 33.8 °F 42% 29.88 in 10.0 mi WSW 6.9 mph - N/A   Clear
12:55 PM 58.1 °F - 33.6 °F 40% 29.87 in 10.0 mi SW 12.7 mph 16.1 mph N/A   Clear
1:15 PM 58.5 °F - 32.9 °F 38% 29.86 in 10.0 mi West 9.2 mph 16.1 mph N/A   Clear
1:35 PM 59.2 °F - 32.4 °F 36% 29.86 in 10.0 mi SW 12.7 mph 21.9 mph N/A   Clear
1:55 PM 60.3 °F - 32.4 °F 35% 29.85 in 10.0 mi SW 12.7 mph 19.6 mph N/A   Clear
2:15 PM 60.3 °F - 32.5 °F 35% 29.84 in 10.0 mi West 13.8 mph - N/A   Clear
2:35 PM 60.3 °F - 31.1 °F 33% 29.83 in 10.0 mi WSW 11.5 mph 19.6 mph N/A   Clear
2:55 PM 60.8 °F - 32.2 °F 34% 29.83 in 10.0 mi West 11.5 mph - N/A   Clear
3:15 PM 61.3 °F - 31.5 °F 32% 29.83 in 10.0 mi West 15.0 mph 20.7 mph N/A   Clear
3:35 PM 60.8 °F - 32.0 °F 34% 29.84 in 10.0 mi WSW 11.5 mph - N/A   Clear
3:55 PM 60.8 °F - 33.1 °F 35% 29.84 in 10.0 mi West 11.5 mph - N/A   Clear
4:15 PM 61.0 °F - 32.5 °F 34% 29.83 in 10.0 mi West 10.4 mph 17.3 mph N/A   Clear
4:35 PM 59.9 °F - 32.2 °F 35% 29.83 in 10.0 mi West 10.4 mph - N/A   Clear
4:55 PM 59.9 °F - 32.4 °F 35% 29.83 in 10.0 mi West 11.5 mph - N/A   Clear
5:15 PM 59.0 °F - 32.7 °F 37% 29.83 in 10.0 mi West 10.4 mph - N/A   Clear
5:35 PM 58.8 °F - 33.3 °F 38% 29.83 in 10.0 mi West 9.2 mph - N/A   Clear
5:55 PM 57.9 °F - 32.2 °F 38% 29.84 in 10.0 mi West 6.9 mph - N/A   Clear
6:15 PM 55.6 °F - 32.0 °F 41% 29.84 in 10.0 mi West 6.9 mph - N/A   Clear
6:35 PM 54.5 °F - 32.2 °F 43% 29.84 in 10.0 mi WSW 4.6 mph - N/A   Clear
6:55 PM 52.2 °F - 32.9 °F 48% 29.85 in 10.0 mi WSW 3.5 mph - N/A   Clear
7:15 PM 50.7 °F - 32.9 °F 51% 29.85 in 10.0 mi West 3.5 mph - N/A   Clear
7:35 PM 50.4 °F - 33.3 °F 52% 29.86 in 10.0 mi WSW 3.5 mph - N/A   Clear
7:55 PM 50.7 °F - 33.1 °F 51% 29.86 in 10.0 mi SW 4.6 mph - N/A   Scattered Clouds
8:15 PM 47.8 °F - 33.8 °F 58% 29.86 in 10.0 mi WSW 9.2 mph - N/A   Scattered Clouds
8:35 PM 50.2 °F - 35.1 °F 56% 29.86 in 10.0 mi West 8.1 mph - N/A   Clear
8:55 PM 49.3 °F - 36.1 °F 61% 29.87 in 10.0 mi West 9.2 mph - N/A   Clear
9:15 PM 48.4 °F - 37.0 °F 65% 29.88 in 10.0 mi West 9.2 mph - N/A   Clear
9:35 PM 48.9 °F - 39.4 °F 70% 29.89 in 10.0 mi West 10.4 mph - N/A   Clear
9:55 PM 48.2 °F - 41.0 °F 76% 29.89 in 10.0 mi West 11.5 mph - N/A   Clear
10:15 PM 47.8 °F - 41.5 °F 79% 29.90 in 10.0 mi West 15.0 mph - N/A   Clear
10:35 PM 47.5 °F - 41.9 °F 81% 29.90 in 10.0 mi West 15.0 mph 19.6 mph N/A   Clear
10:55 PM 46.6 °F - 41.9 °F 84% 29.91 in 10.0 mi West 12.7 mph 17.3 mph N/A   Clear
11:15 PM 45.9 °F 40.8 °F 41.9 °F 86% 29.91 in 10.0 mi WNW 10.4 mph - N/A   Scattered Clouds
11:35 PM 46.4 °F 41.5 °F 42.1 °F 85% 29.91 in 10.0 mi West 10.4 mph - N/A   Mostly Cloudy
11:55 PM 46.0 °F 41.0 °F 42.1 °F 86% 29.92 in 10.0 mi WNW 10.4 mph - N/A   Overcast